[[{"header":{"parameterUnit":"m.s-1","parameterCategory":1,"la1":30.2991,"la2":30.254,"lo1":-89.0895,"lo2":-89.0444,"dy":0.0017,"dx":0.0017,"nx":28,"ny":28,"refTime":"2025-09-14T21:00:00:Z","depth":0,"parameterNumber":2,"parameterNumberName":"U-component_of_WINDS"},"data":[0,0,0,0,0,0,0,0,0,0,0,0,0,0,0,0,0,0,0,0,0,0,0,0,0,0,0,0,0,0,0,0,0,0,0,0,0,0,0,0,0,0,0,0,0,0,0,0,0,0,0,0,0,0,0,0,0,0,-0.8218,-0.8217,0,-0.8204,-0.8204,-0.8204,-0.8169,-0.8168,-0.8168,-0.8167,-0.8155,-0.8155,-0.8156,0,0,0,0,0,0,0,0,0,0,0,0,0,-0.8217,-0.8217,-0.8218,-0.8217,-0.8217,-0.8204,-0.8204,-0.8204,-0.8169,-0.8168,-0.8167,-0.8167,-0.8155,-0.8155,-0.8156,0,0,0,0,0,0,0,0,0,0,0,0,0,-0.8212,-0.8217,-0.8218,-0.8198,-0.8197,-0.8204,-0.8204,-0.8204,-0.8169,-0.8168,-0.8167,-0.8166,-0.8155,-0.8155,-0.8156,-0.8181,0,0,-0.8157,-0.8158,0,0,0,0,0,0,0,0,-0.8212,-0.8212,-0.8201,-0.82,-0.8198,-0.8187,-0.8199,-0.8196,-0.817,-0.818,-0.8167,-0.8166,-0.8167,-0.8166,-0.8166,-0.8181,-0.818,-0.8157,-0.8158,-0.8158,-0.8158,0,0,0,0,0,0,0,-0.8212,-0.8212,-0.8212,-0.8201,-0.8199,-0.8191,-0.819,-0.8198,-0.818,-0.8179,-0.8176,-0.8175,-0.8165,-0.8166,-0.8165,-0.818,-0.8157,-0.8158,-0.8158,-0.8158,-0.8216,-0.8217,0,0,0,0,0,0,-0.8215,-0.8213,-0.8213,-0.8212,-0.8202,-0.8192,-0.819,-0.8192,-0.8179,-0.8176,-0.8176,-0.8173,-0.8165,-0.8165,-0.8165,-0.8195,-0.8158,-0.8158,-0.8159,-0.8215,-0.8217,-0.8218,0,0,0,0,0,0,-0.8215,-0.8215,-0.8213,-0.8212,-0.8211,-0.8194,-0.8196,-0.8192,-0.8192,-0.8177,-0.8174,-0.8179,-0.8164,-0.8164,-0.8178,-0.8194,-0.8159,-0.8159,-0.8214,-0.8216,-0.8217,-0.8254,0,0,0,0,0,0,-0.8215,-0.8216,-0.8224,-0.8212,-0.8211,-0.8225,-0.8196,-0.8192,-0.8193,-0.8189,-0.818,-0.8177,-0.8163,-0.8177,-0.8178,-0.8194,-0.816,-0.8212,-0.8215,-0.8217,-0.8251,-0.8257,-0.8262,0,0,0,0,0,-0.8215,-0.8235,-0.8225,-0.8225,-0.8221,-0.8226,-0.8226,-0.8209,-0.8194,-0.8204,-0.8194,-0.8177,-0.8192,-0.8179,-0.818,-0.8196,-0.8211,-0.8214,-0.8216,-0.8249,-0.8256,-0.8262,0,0,0,0,0,0,-0.825,-0.8233,-0.8222,-0.8238,-0.8234,-0.822,-0.8231,-0.8217,-0.8217,-0.8214,-0.8194,-0.8192,-0.8209,-0.8204,-0.8189,-0.8221,-0.8199,-0.8202,-0.8223,-0.823,-0.8235,-0.8236,-0.816,0,0,0,0,0,-0.826,-0.8265,-0.825,-0.8266,-0.8265,-0.8249,-0.825,-0.8238,-0.8233,-0.8231,-0.8223,-0.8219,-0.8223,-0.8226,-0.8229,-0.8251,-0.8249,-0.8263,-0.8268,-0.8272,-0.8275,-0.8287,-0.8293,-0.8227,-0.8227,-0.8227,0,0,-0.828,-0.8271,-0.8276,-0.8273,-0.8268,-0.8275,-0.8247,-0.8255,-0.826,-0.8232,-0.8244,-0.8239,-0.8234,-0.8252,-0.8259,-0.8248,-0.8293,-0.8276,-0.8279,-0.828,-0.8291,-0.8297,-0.8303,-0.8229,-0.8228,-0.8228,0,0,-0.832,-0.8313,-0.8326,-0.8322,-0.8316,-0.8305,-0.8308,-0.8297,-0.8292,-0.8304,-0.8284,-0.829,-0.8297,-0.8295,-0.8294,-0.8335,-0.8319,-0.8336,-0.8363,-0.8376,-0.8381,-0.8385,-0.84,-0.8406,-0.8339,-0.8339,-0.8339,0,-0.8345,-0.8353,-0.8335,-0.8344,-0.8344,-0.832,-0.8334,-0.8331,-0.8326,-0.8327,-0.8314,-0.8323,-0.8318,-0.8335,-0.8345,-0.8346,-0.835,-0.8337,-0.8381,-0.8386,-0.839,-0.8404,-0.841,-0.8341,-0.8341,-0.8341,-0.8341,0,-0.8386,-0.8392,-0.8403,-0.8399,-0.84,-0.8411,-0.8396,-0.84,-0.8388,-0.8379,-0.8392,-0.8386,-0.8387,-0.839,-0.8379,-0.8407,-0.84,-0.8385,-0.8362,-0.8399,-0.8412,-0.8417,-0.8344,-0.8344,-0.8343,-0.8343,0,0,-0.8446,-0.8432,-0.8437,-0.8435,-0.8426,-0.8431,-0.8442,-0.8443,-0.8447,-0.8445,-0.8454,-0.8461,-0.8447,-0.8447,-0.8435,-0.8446,-0.848,-0.843,-0.8429,-0.8439,-0.8511,-0.8523,-0.8529,-0.847,-0.8471,-0.8471,-0.8512,0,-0.8484,-0.8501,-0.8485,-0.8506,-0.8512,-0.849,-0.85,-0.8496,-0.8489,-0.8493,-0.8485,-0.8491,-0.8472,-0.8472,-0.8481,-0.8474,-0.8494,-0.847,-0.8479,-0.8479,-0.8481,-0.8536,-0.8548,-0.8586,-0.8517,-0.8517,-0.8518,0,-0.8529,-0.8529,-0.855,-0.8541,-0.8543,-0.8552,-0.8553,-0.8557,-0.8553,-0.8547,-0.8548,-0.8534,-0.8545,-0.8523,-0.8539,-0.8524,-0.8527,-0.8524,-0.8525,-0.8525,-0.8501,-0.8538,-0.8598,-0.8604,-0.8526,-0.8525,-0.8525,0,-0.8572,-0.8577,-0.859,-0.8589,-0.8579,-0.8586,-0.8583,-0.8578,-0.858,-0.8581,-0.8582,-0.8584,-0.8586,-0.8588,-0.8575,-0.8561,-0.8594,-0.8571,-0.8589,-0.859,-0.8597,-0.8597,-0.8659,-0.8599,-0.8599,-0.8599,-0.8599,0,-0.8615,-0.8629,-0.8609,-0.8618,-0.8633,-0.8616,-0.8632,-0.8626,-0.8622,-0.863,-0.8611,-0.8619,-0.8602,-0.8608,-0.8598,-0.8614,-0.8614,-0.861,-0.8608,-0.8612,-0.8612,-0.8613,-0.861,-0.86,-0.86,-0.86,-0.8599,0,-0.8665,-0.8652,-0.8666,-0.8655,-0.8653,-0.8665,-0.8657,-0.8665,-0.8656,-0.8666,-0.8668,-0.8655,-0.8662,-0.8649,-0.8654,-0.8648,-0.8669,-0.8662,-0.867,-0.8668,-0.8688,-0.8686,-0.8752,-0.8761,-0.8696,-0.8697,-0.8697,0,-0.8694,-0.8704,-0.8695,-0.8698,-0.8696,-0.8702,-0.8704,-0.8688,-0.8691,-0.8688,-0.8697,-0.8702,-0.8705,-0.8717,-0.8708,-0.8713,-0.8706,-0.8729,-0.8706,-0.8711,-0.8706,-0.8706,-0.8707,-0.8733,-0.8734,-0.8735,-0.8735,0,-0.8746,-0.8739,-0.8743,-0.8744,-0.8747,-0.8748,-0.8747,-0.8751,-0.8735,-0.874,-0.8746,-0.8748,-0.8754,-0.8759,-0.8762,-0.8759,-0.8745,-0.8742,-0.8747,-0.8751,-0.8756,-0.8754,-0.8683,-0.8741,-0.874,-0.874,-0.874,-0.8739,-0.8786,-0.8795,-0.879,-0.8794,-0.8792,-0.8793,-0.88,-0.8793,-0.8797,-0.88,-0.8791,-0.88,-0.8797,-0.8799,-0.8798,-0.8805,-0.8795,-0.8801,-0.8803,-0.8805,-0.8808,-0.8755,-0.8805,-0.8805,-0.8805,-0.8805,-0.8805,0,-0.8838,-0.8834,-0.8838,-0.8838,-0.8842,-0.8828,-0.8827,-0.8832,-0.884,-0.8838,-0.8842,-0.885,-0.8855,-0.8848,-0.8852,-0.886,-0.8854,-0.8862,-0.8861,-0.8861,-0.8817,-0.8812,-0.8867,-0.8867,-0.8867,-0.8867,-0.8867,-0.8867,-0.8865,-0.8879,-0.8872,-0.8885,-0.8881,-0.8889,-0.889,-0.889,-0.8889,-0.8899,-0.8903,-0.8898,-0.8895,-0.8899,-0.8904,-0.8902,-0.8905,-0.8915,-0.8911,-0.887,-0.8864,-0.8858,-0.8854,-0.8916,-0.8916,-0.8954,-0.8954,-0.8954]},{"header":{"parameterUnit":"m.s-1","parameterCategory":1,"la1":30.2991,"la2":30.254,"lo1":-89.0895,"lo2":-89.0444,"dy":0.0017,"dx":0.0017,"nx":28,"ny":28,"refTime":"2025-09-14T21:00:00:Z","depth":0,"parameterNumber":3,"parameterNumberName":"V-component_of_WINDS"},"data":[0,0,0,0,0,0,0,0,0,0,0,0,0,0,0,0,0,0,0,0,0,0,0,0,0,0,0,0,0,0,0,0,0,0,0,0,0,0,0,0,0,0,0,0,0,0,0,0,0,0,0,0,0,0,0,0,0,0,1.7836,1.7834,0,1.7585,1.7582,1.7579,1.742,1.7419,1.7419,1.7418,1.7148,1.7142,1.7136,0,0,0,0,0,0,0,0,0,0,0,0,0,1.8171,1.8165,1.7837,1.7834,1.783,1.7585,1.7582,1.7578,1.742,1.7419,1.7418,1.7417,1.7151,1.7143,1.7135,0,0,0,0,0,0,0,0,0,0,0,0,0,1.7983,1.8164,1.7837,1.7722,1.771,1.7586,1.7581,1.7577,1.7421,1.7419,1.7418,1.7417,1.7153,1.7144,1.7134,1.7101,0,0,1.7105,1.7101,0,0,0,0,0,0,0,0,1.7994,1.7971,1.7742,1.773,1.7716,1.7533,1.76,1.7417,1.7421,1.753,1.7418,1.7416,1.7277,1.7257,1.7212,1.7089,1.7077,1.7104,1.7099,1.7094,1.7092,0,0,0,0,0,0,0,1.8007,1.798,1.7736,1.7739,1.7723,1.768,1.7652,1.7565,1.7413,1.752,1.7508,1.7481,1.7269,1.7222,1.7205,1.7073,1.7105,1.7096,1.709,1.7086,1.6909,1.691,0,0,0,0,0,0,1.8039,1.7992,1.7744,1.7729,1.7855,1.7675,1.7644,1.7593,1.7414,1.7386,1.7483,1.7475,1.7239,1.7216,1.7194,1.7143,1.7095,1.7086,1.708,1.6908,1.6909,1.691,0,0,0,0,0,0,1.8047,1.8019,1.7755,1.7857,1.782,1.7671,1.7615,1.7588,1.7541,1.7386,1.7357,1.7463,1.7237,1.7208,1.7126,1.7132,1.7081,1.7073,1.6907,1.6908,1.691,1.7042,0,0,0,0,0,0,1.8058,1.8023,1.8011,1.7858,1.7816,1.7694,1.7615,1.7584,1.7526,1.7514,1.7359,1.7332,1.7233,1.7141,1.7117,1.7118,1.7065,1.6905,1.6907,1.6909,1.7036,1.7048,1.7058,0,0,0,0,0,1.807,1.8056,1.8011,1.7982,1.7799,1.7695,1.767,1.756,1.7528,1.7513,1.7413,1.7337,1.7136,1.7134,1.7105,1.7104,1.6905,1.6907,1.6909,1.7032,1.7046,1.7057,0,0,0,0,0,0,1.8209,1.8034,1.7982,1.7919,1.7824,1.7669,1.7647,1.7578,1.7487,1.7478,1.7342,1.7308,1.724,1.7163,1.7165,1.7062,1.7011,1.7008,1.7114,1.7126,1.7137,1.7156,1.7057,0,0,0,0,0,1.8234,1.8168,1.8016,1.7975,1.793,1.7798,1.7748,1.7672,1.7566,1.7523,1.7417,1.7314,1.7227,1.7172,1.7084,1.7025,1.6988,1.7009,1.702,1.703,1.7027,1.6989,1.6997,1.6918,1.6918,1.6918,0,0,1.8281,1.8177,1.8143,1.8,1.7917,1.7849,1.7764,1.7695,1.7642,1.7511,1.7429,1.7348,1.7223,1.7153,1.7116,1.7087,1.7042,1.7032,1.7041,1.7033,1.6992,1.7,1.7007,1.6919,1.6919,1.6919,0,0,1.8332,1.8249,1.8205,1.8124,1.8001,1.7913,1.7903,1.7758,1.77,1.7616,1.7517,1.745,1.7304,1.7219,1.7157,1.7179,1.7105,1.7153,1.7208,1.7172,1.7179,1.7183,1.719,1.7194,1.7152,1.7152,1.7153,0,1.8406,1.8302,1.819,1.8127,1.8066,1.795,1.7902,1.7828,1.7681,1.764,1.7611,1.7425,1.7333,1.7241,1.7247,1.7201,1.7183,1.7169,1.7188,1.7191,1.7194,1.7198,1.7201,1.7159,1.7158,1.7158,1.7157,0,1.8398,1.8328,1.8306,1.8172,1.8108,1.8054,1.793,1.7879,1.7809,1.7723,1.7638,1.7524,1.7411,1.7383,1.7312,1.7281,1.7266,1.7214,1.716,1.721,1.7212,1.7213,1.7169,1.7166,1.7164,1.7163,0,0,1.8528,1.8334,1.8328,1.8265,1.8121,1.8063,1.8002,1.7895,1.7853,1.7756,1.7699,1.758,1.7531,1.746,1.7379,1.7348,1.7371,1.7298,1.7293,1.7315,1.7328,1.7367,1.7371,1.7323,1.7322,1.7322,1.7338,0,1.8557,1.8446,1.8343,1.8268,1.82,1.8089,1.8035,1.794,1.7859,1.7786,1.7694,1.7612,1.7554,1.7511,1.7476,1.7376,1.7372,1.7374,1.7265,1.7263,1.7299,1.7372,1.7413,1.7434,1.7338,1.7338,1.7338,0,1.8575,1.8487,1.8407,1.827,1.8237,1.8192,1.8085,1.8019,1.7907,1.785,1.7774,1.7689,1.7616,1.7572,1.7469,1.7473,1.7422,1.7367,1.7365,1.7349,1.7303,1.7357,1.7437,1.744,1.7338,1.7338,1.7338,0,1.8677,1.8537,1.8471,1.8421,1.826,1.823,1.8161,1.8049,1.7991,1.7897,1.7858,1.7756,1.7699,1.762,1.7509,1.7487,1.7417,1.7364,1.7365,1.7368,1.7353,1.7355,1.7425,1.7324,1.7324,1.7324,1.7324,0,1.8719,1.8673,1.8515,1.8474,1.8419,1.83,1.8248,1.8168,1.807,1.8009,1.7905,1.785,1.7707,1.7634,1.7546,1.7473,1.7448,1.7398,1.7375,1.7406,1.7413,1.737,1.7365,1.7325,1.7325,1.7324,1.7324,0,1.8822,1.8715,1.8634,1.849,1.8453,1.8418,1.8293,1.8247,1.8161,1.8086,1.8061,1.7924,1.7833,1.7715,1.7585,1.7526,1.7462,1.7427,1.7501,1.7487,1.7495,1.7495,1.7538,1.7537,1.744,1.7441,1.7442,0,1.8855,1.8818,1.8671,1.8625,1.8561,1.8487,1.8428,1.831,1.8253,1.8124,1.8093,1.7995,1.7909,1.7768,1.7655,1.7554,1.7515,1.7538,1.7499,1.7532,1.7514,1.7517,1.7512,1.7547,1.7548,1.755,1.7551,0,1.8925,1.8874,1.8796,1.8699,1.8634,1.8551,1.8463,1.843,1.8292,1.8233,1.814,1.8075,1.7944,1.7846,1.7732,1.7657,1.758,1.7565,1.7559,1.759,1.7634,1.7609,1.7526,1.7563,1.7562,1.7561,1.756,1.756,1.8992,1.8954,1.8846,1.8762,1.8684,1.8605,1.8555,1.8465,1.8386,1.8273,1.8207,1.8117,1.8005,1.7844,1.7773,1.7698,1.7668,1.7661,1.7659,1.7658,1.7668,1.7648,1.7676,1.7676,1.7675,1.7675,1.7674,0,1.9056,1.8981,1.8905,1.8788,1.8721,1.866,1.8559,1.8507,1.843,1.8334,1.8254,1.8146,1.8052,1.7933,1.783,1.7792,1.7755,1.7769,1.7769,1.7753,1.7701,1.7715,1.7801,1.7801,1.7801,1.7801,1.7801,1.7801,1.9081,1.9013,1.895,1.8841,1.8765,1.8679,1.8627,1.8552,1.8475,1.8362,1.8284,1.8209,1.8103,1.7991,1.7901,1.7868,1.7834,1.7859,1.7815,1.7768,1.7757,1.7746,1.7759,1.7853,1.7853,1.7873,1.7874,1.7874]}]]